Location: Dehesa de la Cepeda
(40.6574°N, 4.3013°W)
Time: 20:25:22
(UTC+00:00)

Vanguard 3 - Pass Details

Date: 05 August 2021
Orbit: 510 x 3260 km, 33.3° (Epoch: 22 September)

Event Time Altitude Azimuth Distance (km) Brightness Sun altitude
Rises 21:49:02 0° 279° (W) 6,430 12.5 -22.4°
Reaches altitude 10° 21:53:06 10° 274° (W) 5,678 12.0 -22.9°
Maximum altitude 22:10:26 49° 207° (SSW) 3,861 10.3 -24.9°
Enters shadow 22:19:19 33° 159° (SSE) 4,413 10.3 -25.8°
